Location: ??????
(30.0081°N, 31.2109°E)
Time: 07:59:33
(UTC+00:00)

ATLAS CENTAUR R/B - Pass Details

Date: 03 March 2021
Orbit: 475 x 670 km, 64.7° (Epoch: 30 March)

Event Time Altitude Azimuth Distance (km) Brightness Sun altitude
Rises 16:38:14 0° 218° (SW) 2,548 5.3 -10.0°
Reaches altitude 10° 16:40:27 10° 224° (SW) 1,654 4.5 -10.5°
Maximum altitude 16:43:59 47° 299° (WNW) 637 2.1 -11.3°
Drops below altitude 10° 16:47:30 10° 15° (NNE) 1,641 3.6 -12.0°
Sets 16:49:41 0° 21° (NNE) 2,527 4.5 -12.5°
